Terminal Aerodrome Forecast
Issued by NWS

Home | Current Version | Previous Version | Text Only | Print | Product List | Glossary On
Versions: 1 2 3 4 5 6 7 8 9 10 11 12 13 14 15 16 17 18 19 20 21 22 23 24 25 26 27 28 29 30 31 32
000
FTUS45 KRIW 221727
TAFPNA
TAF
KPNA 221727Z 2218/2318 29010KT P6SM SCT050 BKN080
     FM230000 VRB04KT P6SM VCSH BKN040
     FM230600 VRB05KT P6SM -SN SCT024 OVC040
     FM231600 05012G20KT P6SM VCSH BKN050
      AMD LTD TO CLD VIS AND WIND=

USA.gov is the U.S. government's official web portal to all federal, state and local government web resources and services.